TRANSPORTER-15 CR (66753 NORAD) Tracking and Keplerian Element Data

This shows tracking and keplerian element data for the satellite.

Feedback or suggestion? Click here.




ElementValue
Catalog66753
NameTRANSPORTER-15 CR
Epoch Orbit439
Epoch Day354.00002315
Epoch Year2025
RAAN65.637
Inclination97.4422
Eccentricity0.0001085
Argument of Perigee301.9192
Mean Anonmoly97.7451
Mean Motion15.17342416
Decay Rate0.00023708
L11 66753U 25276CR 25354.00002315 .00023708 00000+0 11886-2 0 9994
L22 66753 97.4422 65.6370 0001085 301.9192 97.7451 15.17342416 4396



Live tracking and technical data element details for TRANSPORTER-15 CR (NORAD 66753). TRANSPORTER-15 CR can be tracked NOW for your location showing map with azimuth and elevation plus other details from your city location.







IsCatalogInMostPopularTable: catalog: 66753, numindb: 19
Update: records affected: 1



GetName: 66753 TRANSPORTER-15 CR

Hit Count: updated at: Tue, 21 Apr 2026 20:23:01 GMT